Location: ???????
(54.6339°N, 39.4245°E)
Time: 14:09:57
(UTC+00:00)

ARIANE 6 FM1 Upper Stage - Pass Details

Date: 19 May 2025
Orbit: 530 x 610 km, 62.0° (Epoch: 19 June)

Event Time Altitude Azimuth Distance (km) Brightness Sun altitude
Rises 18:43:35 0° 222° (SW) 2,665 6.0 -8.4°
Reaches altitude 10° 18:45:46 10° 220° (SW) 1,779 5.1 -8.6°
Maximum altitude 18:49:43 66° 138° (SE) 589 2.5 -8.9°
Drops below altitude 10° 18:53:45 10° 56° (ENE) 1,810 5.3 -9.2°
Sets 18:55:59 0° 54° (NE) 2,715 6.2 -9.4°
